YAOGAN 3

Satellite information

Favourite Embed

Satellite Type and Status

PAYLOADIN ORBIT

Key statistics

Satellite YAOGAN 3 at a glance.

Uptime

6512

Days in orbit

Revolutions

≈ 14.9

Per day

Orbit

SSO

Sun Synchronous Orbit

Inclination

97.8

Latest

Satellite identification and parameters

Extended collection of information and parameters for YAOGAN 3.

Object identification

Identified? True

Debris? False

Object name: YAOGAN 3

International designator: 2007-055A

Object number (NORAD): 32289

Object ID (CCSDS): 32289

Country: PEOPLES REPUBLIC OF CHINA (PRC)

Current information (Y/N): Y

RCS size: LARGE

Orbital parameters

Period: 96.697 minutes

Inclination: 97.8484 deg

SMA: 6978.622 km

Apoapsis: 601.348 km

Periapsis: 599.626 km

RAAN: 279.0842 deg

Eccentricy: 0.00012337

Argument of periapsis: 94.0002 deg

Mean anomaly: 266.1357 deg

Mean motion: 14.89183575 rev/day

Mean motion (dot): 0.00002832 rev/day2

B* drag term: 0.00030558424 1/REarth

Two-line elements (TLE)

Creation date: Sept. 8, 2025, 6:18 p.m.

Reference frame: TEME

Reference center: EARTH

Epoch: Sept. 8, 2025, 3:01 p.m. UTC

TLE line 0: 0 YAOGAN 3

TLE line 1: 1 32289U 07055A 25251.62615314 .00002832 00000-0 30558-3 0 9993

TLE line 2: 2 32289 97.8484 279.0842 0001234 94.0002 266.1357 14.89183575963934

Live tracking on map

Real-time ground track for satellite YAOGAN 3.

In-orbit conjunctions

There are no conjunctions computed for YAOGAN 3, at the moment. Check back to stay up to date, as we update our databases every day.

Go to all conjunctions

Associated space launch

Chinese Earth observation satellite likely also used for military reconnaissance

YAOGAN 3 was lifted into orbit during the mission ‘Long March 4C | Yaogan Weixing 3’, on board a Long March 4C space rocket.

The launch took place on Nov. 11, 2007, 10:48 p.m. from Launch Complex 7.

For more information about the launch, click the button.

Launch to space Long March 4C | Yaogan Weixing 3
Long March 4C | Yaogan Weixing 3

Agency: N/A

Status: Launch Successful

Launch date: Nov. 11, 2007, 10:48 p.m. UTC

Rocket: Long March 4C

Launch pad: Launch Complex 7

Location: Taiyuan Satellite Launch Center, People's Republic of China

...

Latest news about this satellite

There are no fresh news available about this satellite. Check back as we update our databases every day.


Newsletter sign-up

Weekly statistics, charts and insights to help you stay on top of the space industry.